Voltar ao catálogo

ECHOSTAR 3

AtivoComunicaçõesGEO
NORAD 25004·PAYLOAD·🇺🇸 United States

Lançado Oct 5, 1997 de Cape Canaveral Space Force Station

Loading…

TLE

AtualizadoSource: Space-Track

Época: Sep 14, 2026, 06:00 UTC

1 25004U 97059A   26257.25003086 -.00000268  00000-0  00000-0 0  9994
2 25004   9.7285  54.8456 0009521 358.9068 187.8663  0.98876848105487

Acompanhe ECHOSTAR 3 em tempo real com AllMySat

Download on the App Store